Weather History for KBFF - March, 2014

Change the Weather History Date:

Monday, March 31, 2014

  Actual Average Record
Temperature  
Mean Temperature 36 °F 42 °F  
Max Temperature 47 °F 57 °F 84 °F (1946)
Min Temperature 25 °F 28 °F 4 °F (1896)
Degree Days  
Heating Degree Days 29 23  
Month to date heating degree days 830 830  
Since 1 July heating degree days 5863 5741  
Cooling Degree Days 0 0  
Month to date cooling degree days 0 0  
Year to date cooling degree days 0 0  
Moisture  
Dew Point 27 °F    
Average Humidity 65    
Maximum Humidity 89    
Minimum Humidity 41    
Precipitation  
Precipitation 0.02 in 0.04 in 1.80 in (1927)
Month to date precipitation 0.77 1.00  
Year to date precipitation 2.37 2.01  
Snow  
Snow T in 0.20 in 4.20 in (1980)
Month to date snowfall 8.2 7.8  
Since 1 July snowfall 59.5 36.2  
Snow Depth T in    
Sea Level Pressure  
Sea Level Pressure 29.78 in    
Wind  
Wind Speed 22 mph (NW)    
Max Wind Speed 45 mph    
Max Gust Speed 55 mph    
Visibility 8 miles    
Events Rain , Snow    
T = Trace of Precipitation, MM = Missing Value Source: NWS Daily Summary

Daily Weather History Graph

Daily Weather History Graph

Search for Another Location

Airport or City:

Trip Planner

Search our weather history database for the weather conditions in past years. The results will help you decide how hot, cold, wet, or windy it might be!

Date:

Astronomy

Mar. 31, 2014 Rise Set
Actual Time 6:38 AM MDT 7:18 PM MDT
Civil Twilight 6:10 AM MDT 7:47 PM MDT
Nautical Twilight 5:37 AM MDT 8:20 PM MDT
Astronomical Twilight 5:03 AM MDT 8:54 PM MDT
Moon 7:02 AM MDT (3/31) 8:41 PM MDT (3/31)
Length of Visible Light 13h 36m
Length of Day
12h 40m
New Moon, 1% of the Moon is Illuminated
Mar 31
New Moon
Apr 7
First Quarter
Apr 15
Full
Apr 22
Last Quarter
Apr 29
New

Hourly Weather History & Observations

Time (MDT) Temp. Windchill Dew Point Humidity Pressure Visibility Wind Dir Wind Speed Gust Speed Precip Events Conditions
12:53 AM 46.9 °F - 39.9 °F 77% 29.41 in 10.0 mi WNW 15.0 mph - 0.01 in   Mostly Cloudy
1:53 AM 46.0 °F 40.6 °F 39.0 °F 76% 29.39 in 10.0 mi WNW 11.5 mph - 0.00 in   Scattered Clouds
2:53 AM 42.1 °F 32.6 °F 36.0 °F 79% 29.43 in 10.0 mi WNW 23.0 mph 36.8 mph N/A   Overcast
3:46 AM 37.0 °F 25.4 °F 33.1 °F 86% 29.54 in 10.0 mi WNW 25.3 mph 32.2 mph 0.00 in Rain Light Rain
3:53 AM 37.0 °F 25.1 °F 33.1 °F 86% 29.48 in 10.0 mi NW 26.5 mph 35.7 mph 0.00 in Rain Light Rain
4:31 AM 35.1 °F 22.2 °F 30.9 °F 85% 29.59 in 7.0 mi NW 27.6 mph 44.9 mph 0.00 in Snow Light Snow
4:46 AM 34.0 °F 20.3 °F 30.9 °F 89% 29.61 in 1.8 mi NW 29.9 mph 41.4 mph 0.00 in Snow Light Snow
4:53 AM 34.0 °F 21.0 °F 30.9 °F 89% 29.57 in 2.0 mi WNW 26.5 mph 40.3 mph 0.00 in Snow Light Snow
5:02 AM 34.0 °F 21.0 °F 30.0 °F 85% 29.62 in 4.0 mi WNW 26.5 mph 34.5 mph 0.01 in Snow Light Snow
5:13 AM 34.0 °F 21.8 °F 30.0 °F 85% 29.63 in 2.5 mi WNW 23.0 mph 31.1 mph 0.01 in Snow Light Snow
5:24 AM 34.0 °F 21.0 °F 30.0 °F 85% 29.64 in 3.0 mi WNW 26.5 mph 39.1 mph 0.01 in Snow Light Snow
5:31 AM 33.1 °F 19.8 °F 30.0 °F 89% 29.65 in 1.8 mi WNW 26.5 mph 39.1 mph 0.01 in Snow Light Snow
5:53 AM 33.1 °F 20.3 °F 30.0 °F 89% 29.62 in 2.0 mi WNW 24.2 mph 39.1 mph 0.01 in Snow Light Snow
6:03 AM 33.1 °F 19.8 °F 28.9 °F 85% 29.67 in 4.0 mi WNW 26.5 mph 33.4 mph 0.01 in Snow Light Snow
6:53 AM 33.1 °F 19.8 °F 26.1 °F 75% 29.68 in 10.0 mi WNW 26.5 mph 42.6 mph 0.01 in   Overcast
7:24 AM 32.0 °F 17.6 °F 25.0 °F 75% 29.73 in 10.0 mi NW 29.9 mph 43.7 mph N/A   Mostly Cloudy
7:53 AM 30.9 °F 15.9 °F 24.1 °F 76% 29.73 in 10.0 mi NW 31.1 mph 42.6 mph N/A   Mostly Cloudy
8:53 AM 30.9 °F 15.3 °F 21.0 °F 67% 29.76 in 10.0 mi NW 34.5 mph 50.6 mph N/A   Partly Cloudy
9:53 AM 30.9 °F 15.7 °F 19.9 °F 64% 29.81 in 10.0 mi NW 32.2 mph 50.6 mph N/A   Mostly Cloudy
10:53 AM 34.0 °F 19.7 °F 21.9 °F 61% 29.82 in 10.0 mi NW 33.4 mph 46.0 mph N/A   Overcast
11:53 AM 37.9 °F 25.1 °F 24.1 °F 57% 29.85 in 10.0 mi NW 33.4 mph 49.5 mph N/A   Overcast
12:53 PM 42.1 °F 30.1 °F 24.1 °F 49% 29.87 in 10.0 mi NW 38.0 mph 51.8 mph N/A   Clear
1:53 PM 44.1 °F 33.7 °F 25.0 °F 47% 29.91 in 10.0 mi NW 32.2 mph 41.4 mph N/A   Partly Cloudy
2:53 PM 43.0 °F 33.1 °F 21.0 °F 42% 29.95 in 10.0 mi NW 26.5 mph 36.8 mph N/A   Partly Cloudy
3:53 PM 45.0 °F 35.8 °F 23.0 °F 42% 29.97 in 10.0 mi NW 26.5 mph 38.0 mph N/A   Partly Cloudy
4:53 PM 44.1 °F 34.8 °F 23.0 °F 43% 29.99 in 10.0 mi NNW 25.3 mph 32.2 mph N/A   Clear
5:53 PM 43.0 °F 34.5 °F 24.1 °F 47% 30.02 in 10.0 mi NNW 19.6 mph 25.3 mph N/A   Clear
6:53 PM 39.0 °F 31.4 °F 24.1 °F 55% 30.04 in 10.0 mi North 12.7 mph - N/A   Clear
7:53 PM 34.0 °F 25.5 °F 24.1 °F 67% 30.07 in 10.0 mi North 11.5 mph - N/A   Clear
8:53 PM 30.0 °F - 24.1 °F 79% 30.09 in 10.0 mi Calm Calm - N/A   Clear
9:53 PM 30.0 °F 26.5 °F 24.1 °F 79% 30.09 in 10.0 mi ESE 3.5 mph - N/A   Clear
10:53 PM 26.1 °F 16.8 °F 21.9 °F 84% 30.10 in 10.0 mi ENE 9.2 mph - N/A   Clear
11:53 PM 27.0 °F 16.1 °F 21.9 °F 81% 30.05 in 10.0 mi ENE 12.7 mph - N/A   Clear